Location: Unspecified
(0.0000°N, 0.0000°E)
Time: 09:46:39
(UTC+00:00)

Envisat - Pass Details

Date: 04 June 2020
Orbit: 764 x 766 km, 98.1° (Epoch: 06 July)

Event Time Altitude Azimuth Distance (km) Brightness Sun altitude
Rises 05:19:08 0° 31° (NNE) 3,214 7.2 -9.1°
Reaches altitude 10° 05:21:40 10° 42° (NE) 2,291 6.6 -8.5°
Maximum altitude 05:26:04 30° 102° (ESE) 1,334 5.0 -7.5°
Drops below altitude 10° 05:30:28 10° 163° (SSE) 2,299 5.4 -6.5°
Sets 05:33:00 0° 173° (S) 3,227 6.1 -5.9°
